Location: Demmingen
(48.6757°N, 10.4375°E)
Time: 08:45:00
(UTC+00:00)

CZ-2C R/B - Pass Details

Date: 10 August 2024
Orbit: 703 x 903 km, 98.2° (Epoch: 16 September)

Event Time Altitude Azimuth Distance (km) Brightness Sun altitude
Rises 01:15:32 0° 15° (NNE) 3,170 7.6 -21.2°
Reaches altitude 10° 01:17:47 10° 17° (NNE) 2,266 6.6 -21.0°
Maximum altitude 01:22:46 73° 103° (ESE) 807 3.1 -20.6°
Enters shadow 01:24:48 37° 179° (S) 1,193 3.5 -20.5°
